Location: Unspecified
(35.7250°N, 0.0000°E)
Time: 15:00:47
(UTC+00:00)

Explorer 7 - Pass Details

Date: 24 June 2019
Orbit: 485 x 680 km, 50.3° (Epoch: 21 July)

Event Time Altitude Azimuth Distance (km) Brightness Sun altitude
Rises 08:48:18 0° 267° (W) 2,728 10.0 46.5°
Reaches altitude 10° 08:50:51 10° 282° (WNW) 1,873 9.2 47.0°
Maximum altitude 08:54:19 24° 336° (NNW) 1,259 8.7 47.7°
Drops below altitude 10° 08:57:59 10° 30° (NNE) 1,980 10.0 48.5°
Sets 09:00:46 0° 45° (NE) 2,925 10.9 49.0°
